����,���ϕ���(m/s),���ϕ���,�ő�u�ԕ���(m/s),�ő啗��������,�C��(��),���x(%),10���Ԉړ��ώZ�J��(mm),1���Ԉړ��ώZ�J��(mm),���J��(mm),�݌v�J��(mm)
2020-01-27T00:00:00+09:00,2.8,�k�k��,6.1,�k��,7.7,63.1,0,0,0,0
2020-01-27T00:01:00+09:00,2.8,�k�k��,6.1,�k��,7.7,63.3,0,0,0,0
2020-01-27T00:02:00+09:00,2.7,�k�k��,6.1,�k��,7.7,63.4,0,0,0,0
2020-01-27T00:03:00+09:00,2.5,�k�k��,6.1,�k��,7.7,63.4,0,0,0,0
2020-01-27T00:04:00+09:00,2.3,�k�k��,6.1,�k��,7.7,63.4,0,0,0,0
2020-01-27T00:05:00+09:00,2.2,�k�k��,6.1,�k��,7.6,63.5,0,0,0,0
2020-01-27T00:06:00+09:00,2,�k,6.1,�k��,7.6,63.8,0,0,0,0
2020-01-27T00:07:00+09:00,1.6,�k�k��,5.9,�k��,7.6,63.8,0,0,0,0
2020-01-27T00:08:00+09:00,1.4,�k�k��,5.9,�k��,7.6,63.6,0,0,0,0
2020-01-27T00:09:00+09:00,1.4,�k,4.1,�k�k��,7.5,64,0,0,0,0
2020-01-27T00:10:00+09:00,1.5,�k,4.7,�k��,7.6,63.7,0,0,0,0
2020-01-27T00:11:00+09:00,1.5,�k,4.7,�k��,7.7,63.2,0,0,0,0
2020-01-27T00:12:00+09:00,1.4,�k,4.7,�k��,7.6,63.1,0,0,0,0
2020-01-27T00:13:00+09:00,1.6,�k,4.7,�k��,7.6,63.2,0,0,0,0
2020-01-27T00:14:00+09:00,1.6,�k,4.7,�k��,7.6,63.4,0,0,0,0
2020-01-27T00:15:00+09:00,1.7,�k,4.7,�k��,7.6,63.6,0,0,0,0
2020-01-27T00:16:00+09:00,1.9,�k,4.7,�k��,7.5,63.8,0,0,0,0
2020-01-27T00:17:00+09:00,2.1,�k,5.2,�k��,7.5,64,0,0,0,0
2020-01-27T00:18:00+09:00,2.4,�k,5.5,�k��,7.6,63.6,0,0,0,0
2020-01-27T00:19:00+09:00,2.5,�k,5.8,�k�k��,7.6,63.1,0,0,0,0
2020-01-27T00:20:00+09:00,2.5,�k�k��,5.8,�k�k��,7.6,63.4,0,0,0,0
2020-01-27T00:21:00+09:00,2.4,�k�k��,5.8,�k�k��,7.6,63.4,0,0,0,0
2020-01-27T00:22:00+09:00,2.6,�k�k��,5.8,�k�k��,7.6,63.3,0,0,0,0
2020-01-27T00:23:00+09:00,2.6,�k,5.8,�k�k��,7.6,63.1,0,0,0,0
2020-01-27T00:24:00+09:00,2.6,�k,5.8,�k�k��,7.7,62.9,0,0,0,0
2020-01-27T00:25:00+09:00,2.7,�k�k��,5.8,�k�k��,7.6,63,0,0,0,0
2020-01-27T00:26:00+09:00,2.7,�k,5.8,�k�k��,7.6,63.2,0,0,0,0
2020-01-27T00:27:00+09:00,2.7,�k,5.8,�k�k��,7.5,63.7,0,0,0,0
2020-01-27T00:28:00+09:00,2.7,�k,5.8,�k�k��,7.5,63.4,0,0,0,0
2020-01-27T00:29:00+09:00,2.6,�k,5.6,�k��,7.6,63,0,0,0,0
2020-01-27T00:30:00+09:00,2.5,�k,5.6,�k��,7.6,62.7,0,0,0,0
2020-01-27T00:31:00+09:00,2.5,�k,5.6,�k��,7.5,63.3,0,0,0,0
2020-01-27T00:32:00+09:00,2.5,�k,4.7,�k,7.4,64.2,0,0,0,0
2020-01-27T00:33:00+09:00,2.4,�k,4.7,�k,7.5,63.5,0,0,0,0
2020-01-27T00:34:00+09:00,2.4,�k,4.7,�k,7.5,63.6,0,0,0,0
2020-01-27T00:35:00+09:00,2.3,�k,4.7,�k,7.5,63.7,0,0,0,0
2020-01-27T00:36:00+09:00,2.2,�k,5.1,�k��,7.5,63.7,0,0,0,0
2020-01-27T00:37:00+09:00,2.1,�k,5.1,�k��,7.5,63.5,0,0,0,0
2020-01-27T00:38:00+09:00,2,�k,5.1,�k��,7.5,63.2,0,0,0,0
2020-01-27T00:39:00+09:00,1.9,�k,5.1,�k��,7.6,62.9,0,0,0,0
2020-01-27T00:40:00+09:00,1.9,�k,5.1,�k��,7.6,62.8,0,0,0,0
2020-01-27T00:41:00+09:00,1.9,�k�k��,5.1,�k��,7.6,62.5,0,0,0,0
2020-01-27T00:42:00+09:00,1.7,�k�k��,5.1,�k��,7.6,62.7,0,0,0,0
2020-01-27T00:43:00+09:00,1.7,�k�k��,5.1,�k��,7.6,62.8,0,0,0,0
2020-01-27T00:44:00+09:00,1.7,�k�k��,5.1,�k��,7.6,62.6,0,0,0,0
2020-01-27T00:45:00+09:00,1.7,�k�k��,5.1,�k��,7.6,62.5,0,0,0,0
2020-01-27T00:46:00+09:00,1.8,�k�k��,4,�k�k��,7.6,62.4,0,0,0,0
2020-01-27T00:47:00+09:00,1.8,�k�k��,4,�k�k��,7.6,62.5,0,0,0,0
2020-01-27T00:48:00+09:00,1.7,�k,4,�k�k��,7.5,62.5,0,0,0,0
2020-01-27T00:49:00+09:00,1.6,�k,3.5,�k,7.4,63.2,0,0,0,0
2020-01-27T00:50:00+09:00,1.4,�k,3.5,�k,7.4,63.5,0,0,0,0
2020-01-27T00:51:00+09:00,1.4,�k,4,���k��,7.4,63.4,0,0,0,0
2020-01-27T00:52:00+09:00,1.6,�k�k��,4,���k��,7.5,62.5,0,0,0,0
2020-01-27T00:53:00+09:00,1.7,�k�k��,5.2,�k�k��,7.5,62.5,0,0,0,0
2020-01-27T00:54:00+09:00,1.9,�k,5.2,�k�k��,7.5,62.5,0,0,0,0
2020-01-27T00:55:00+09:00,2,�k,5.2,�k�k��,7.6,62.3,0,0,0,0
2020-01-27T00:56:00+09:00,2.1,�k,5.9,�k�k��,7.6,61.9,0,0,0,0
2020-01-27T00:57:00+09:00,2.3,�k,6,�k��,7.6,62.1,0,0,0,0
2020-01-27T00:58:00+09:00,2.5,�k�k��,6,�k��,7.6,61.9,0,0,0,0
2020-01-27T00:59:00+09:00,2.7,�k�k��,6,�k��,7.6,61.9,0,0,0,0
2020-01-27T01:00:00+09:00,2.9,�k�k��,6,�k��,7.6,62,0,0,0,0
2020-01-27T01:01:00+09:00,2.9,�k�k��,6,�k��,7.6,62,0,0,0,0
2020-01-27T01:02:00+09:00,2.8,�k�k��,6,�k��,7.6,62.1,0,0,0,0
2020-01-27T01:03:00+09:00,2.7,�k,6,�k��,7.5,62.4,0,0,0,0
2020-01-27T01:04:00+09:00,2.5,�k,6,�k��,7.4,62.9,0,0,0,0
2020-01-27T01:05:00+09:00,2.3,�k�k��,6,�k��,7.4,63.6,0,0,0,0
2020-01-27T01:06:00+09:00,2.2,�k�k��,6,�k��,7.4,63.8,0,0,0,0
2020-01-27T01:07:00+09:00,2,�k,5.8,�k�k��,7.4,63.2,0,0,0,0
2020-01-27T01:08:00+09:00,1.9,�k,4.8,�k�k��,7.4,63.4,0,0,0,0
2020-01-27T01:09:00+09:00,1.8,�k,4.8,�k�k��,7.4,63.6,0,0,0,0
2020-01-27T01:10:00+09:00,1.7,�k,4.8,�k�k��,7.4,63.6,0,0,0,0
2020-01-27T01:11:00+09:00,1.5,�k,4.8,�k�k��,7.4,63.6,0,0,0,0
2020-01-27T01:12:00+09:00,1.4,�k,4.8,�k�k��,7.4,63.5,0,0,0,0
2020-01-27T01:13:00+09:00,1.4,�k,4.8,�k�k��,7.4,63.8,0,0,0,0
2020-01-27T01:14:00+09:00,1.5,�k,4.8,�k�k��,7.4,63.7,0,0,0,0
2020-01-27T01:15:00+09:00,1.5,�k,4.8,�k�k��,7.4,63.7,0,0,0,0
2020-01-27T01:16:00+09:00,1.5,�k,3.2,�k�k��,7.4,63.8,0,0,0,0
2020-01-27T01:17:00+09:00,1.4,�k,3.7,�k,7.4,63.4,0,0,0,0
2020-01-27T01:18:00+09:00,1.5,�k,6.4,�k�k��,7.5,63.3,0,0,0,0
2020-01-27T01:19:00+09:00,1.5,�k,6.4,�k�k��,7.5,63,0,0,0,0
2020-01-27T01:20:00+09:00,1.6,�k,6.4,�k�k��,7.4,63.6,0,0,0,0
2020-01-27T01:21:00+09:00,1.7,�k,6.4,�k�k��,7.4,63.8,0,0,0,0
2020-01-27T01:22:00+09:00,1.7,�k,6.4,�k�k��,7.3,64.1,0,0,0,0
2020-01-27T01:23:00+09:00,1.7,�k,6.4,�k�k��,7.3,64.2,0,0,0,0
2020-01-27T01:24:00+09:00,1.6,�k,6.4,�k�k��,7.3,64.2,0,0,0,0
2020-01-27T01:25:00+09:00,1.5,�k,6.4,�k�k��,7.4,63.9,0,0,0,0
2020-01-27T01:26:00+09:00,1.4,�k,6.4,�k�k��,7.4,63.6,0,0,0,0
2020-01-27T01:27:00+09:00,1.4,�k,6.4,�k�k��,7.4,63.4,0,0,0,0
2020-01-27T01:28:00+09:00,1.3,�k,3.6,�k�k��,7.4,63.4,0,0,0,0
2020-01-27T01:29:00+09:00,1.4,�k,4.6,�k�k��,7.4,63.4,0,0,0,0
2020-01-27T01:30:00+09:00,1.5,�k,4.6,�k�k��,7.5,62.8,0,0,0,0
2020-01-27T01:31:00+09:00,1.5,�k,4.6,�k�k��,7.5,62.7,0,0,0,0
2020-01-27T01:32:00+09:00,1.6,�k,4.6,�k�k��,7.5,63,0,0,0,0
2020-01-27T01:33:00+09:00,1.7,�k,4.6,�k�k��,7.5,62.9,0,0,0,0
2020-01-27T01:34:00+09:00,1.6,�k�k��,4.6,�k�k��,7.5,63.1,0,0,0,0
2020-01-27T01:35:00+09:00,1.7,�k,4.6,�k�k��,7.4,63.3,0,0,0,0
2020-01-27T01:36:00+09:00,1.8,�k,4.6,�k�k��,7.4,63.2,0,0,0,0
2020-01-27T01:37:00+09:00,1.8,�k,4.6,�k�k��,7.4,63.3,0,0,0,0
2020-01-27T01:38:00+09:00,1.8,�k,4.6,�k�k��,7.4,63.4,0,0,0,0
2020-01-27T01:39:00+09:00,1.6,�k,3.4,���k��,7.4,63.6,0,0,0,0
2020-01-27T01:40:00+09:00,1.5,�k,3.3,�k�k��,7.4,63.8,0,0,0,0
2020-01-27T01:41:00+09:00,1.5,�k,3.3,�k�k��,7.3,64.3,0,0,0,0
2020-01-27T01:42:00+09:00,1.5,�k,3.3,�k�k��,7.2,64.7,0,0,0,0
2020-01-27T01:43:00+09:00,1.5,�k,3.3,�k�k��,7.3,64.9,0,0,0,0
2020-01-27T01:44:00+09:00,1.5,�k,3.3,�k�k��,7.2,65,0,0,0,0
2020-01-27T01:45:00+09:00,1.5,�k,3.3,�k�k��,7.3,65,0,0,0,0
2020-01-27T01:46:00+09:00,1.5,�k,3.3,�k�k��,7.2,65.1,0,0,0,0
2020-01-27T01:47:00+09:00,1.6,�k,3.3,�k�k��,7.2,65.6,0,0,0,0
2020-01-27T01:48:00+09:00,1.6,�k,3.3,�k�k��,7.1,66,0,0,0,0
2020-01-27T01:49:00+09:00,1.6,�k,3.3,�k�k��,7.1,66.3,0,0,0,0
2020-01-27T01:50:00+09:00,1.5,�k,3.3,�k�k��,7.1,66.1,0,0,0,0
2020-01-27T01:51:00+09:00,1.4,�k,3.3,�k�k��,7.2,65.5,0,0,0,0
2020-01-27T01:52:00+09:00,1.3,�k,3.3,�k�k��,7.2,65.5,0,0,0,0
2020-01-27T01:53:00+09:00,1.3,�k,3.3,�k�k��,7.2,65.6,0,0,0,0
2020-01-27T01:54:00+09:00,1.3,�k,3.3,�k�k��,7.1,65.6,0,0,0,0
2020-01-27T01:55:00+09:00,1.2,�k,2.7,���k��,7.2,65.3,0,0,0,0
2020-01-27T01:56:00+09:00,1.1,�k,2.7,���k��,7.3,64.9,0,0,0,0
2020-01-27T01:57:00+09:00,1.1,�k,2.7,���k��,7.2,65,0,0,0,0
2020-01-27T01:58:00+09:00,1.1,�k,2.7,���k��,7.2,65.3,0,0,0,0
2020-01-27T01:59:00+09:00,1.1,�k,2.7,���k��,7.2,65.3,0,0,0,0
2020-01-27T02:00:00+09:00,1.1,�k�k��,2.7,���k��,7.1,65.6,0,0,0,0
2020-01-27T02:01:00+09:00,1,�k�k��,2.7,���k��,7.1,65.9,0,0,0,0
2020-01-27T02:02:00+09:00,1.1,�k�k��,2.7,���k��,7,66.1,0,0,0,0
2020-01-27T02:03:00+09:00,1,�k�k��,2.7,���k��,7,66,0,0,0,0
2020-01-27T02:04:00+09:00,1,�k�k��,2.7,���k��,7,66.2,0,0,0,0
2020-01-27T02:05:00+09:00,0.9,�k�k��,2,�k�k��,7.1,66.1,0,0,0,0
2020-01-27T02:06:00+09:00,0.9,�k�k��,2,�k�k��,7.2,65.4,0,0,0,0
2020-01-27T02:07:00+09:00,0.8,�k�k��,2,�k�k��,7.1,65.8,0,0,0,0
2020-01-27T02:08:00+09:00,0.9,�k�k��,3.8,�k�k��,7.1,66,0,0,0,0
2020-01-27T02:09:00+09:00,0.9,�k�k��,3.8,�k�k��,7.1,65.6,0,0,0,0
2020-01-27T02:10:00+09:00,1,�k�k��,3.8,�k�k��,7.2,65.5,0,0,0,0
2020-01-27T02:11:00+09:00,1.1,�k�k��,3.8,�k�k��,7.1,65.5,0,0,0,0
2020-01-27T02:12:00+09:00,1.2,�k�k��,3.8,�k�k��,7.2,65.4,0,0,0,0
2020-01-27T02:13:00+09:00,1.3,�k�k��,3.8,�k�k��,7.2,65.3,0,0,0,0
2020-01-27T02:14:00+09:00,1.5,�k�k��,3.8,�k�k��,7.3,64.5,0,0,0,0
2020-01-27T02:15:00+09:00,1.8,�k�k��,6.3,�k�k��,7.3,64.3,0,0,0,0
2020-01-27T02:16:00+09:00,2.2,�k�k��,8.2,�k�k��,7.4,64.1,0,0,0,0
2020-01-27T02:17:00+09:00,2.4,�k�k��,8.2,�k�k��,7.4,64.1,0,0,0,0
2020-01-27T02:18:00+09:00,2.4,�k�k��,8.2,�k�k��,7.4,63.9,0,0,0,0
2020-01-27T02:19:00+09:00,2.5,�k�k��,8.2,�k�k��,7.4,63.9,0,0,0,0
2020-01-27T02:20:00+09:00,2.5,�k,8.2,�k�k��,7.4,64.2,0,0,0,0
2020-01-27T02:21:00+09:00,2.6,�k,8.2,�k�k��,7.3,64.6,0,0,0,0
2020-01-27T02:22:00+09:00,2.6,�k,8.2,�k�k��,7.3,64.7,0,0,0,0
2020-01-27T02:23:00+09:00,2.6,�k,8.2,�k�k��,7.4,63.8,0,0,0,0
2020-01-27T02:24:00+09:00,2.6,�k,8.2,�k�k��,7.4,63.7,0,0,0,0
2020-01-27T02:25:00+09:00,2.4,�k,8.2,�k�k��,7.4,63.8,0,0,0,0
2020-01-27T02:26:00+09:00,2.1,�k,5.6,�k,7.4,63.9,0,0,0,0
2020-01-27T02:27:00+09:00,2,�k,4.2,�k,7.3,64.1,0,0,0,0
2020-01-27T02:28:00+09:00,1.9,�k,4.2,�k,7.2,64.5,0,0,0,0
2020-01-27T02:29:00+09:00,1.8,�k�k��,4.2,�k,7.2,64.7,0,0,0,0
2020-01-27T02:30:00+09:00,1.8,�k�k��,4.2,�k,7.2,64.8,0,0,0,0
2020-01-27T02:31:00+09:00,1.7,�k�k��,4.2,�k,7.2,65.2,0,0,0,0
2020-01-27T02:32:00+09:00,1.7,�k,4.2,�k,7.3,64.7,0,0,0,0
2020-01-27T02:33:00+09:00,1.6,�k,4.2,�k,7.3,64.4,0,0,0,0
2020-01-27T02:34:00+09:00,1.6,�k�k��,3.7,�k�k��,7.3,64.6,0,0,0,0
2020-01-27T02:35:00+09:00,1.4,�k,3,�k��,7.3,64.7,0,0,0,0
2020-01-27T02:36:00+09:00,1.3,�k,3,�k��,7.3,64.6,0,0,0,0
2020-01-27T02:37:00+09:00,1.2,�k,3,�k��,7.2,64.8,0,0,0,0
2020-01-27T02:38:00+09:00,1.2,�k,3,�k��,7.2,65,0,0,0,0
2020-01-27T02:39:00+09:00,1.3,�k,3,�k��,7.2,65.3,0,0,0,0
2020-01-27T02:40:00+09:00,1.2,�k,3,�k��,7.2,65.6,0,0,0,0
2020-01-27T02:41:00+09:00,1.2,�k,3,�k��,7.2,65.6,0,0,0,0
2020-01-27T02:42:00+09:00,1.1,�k,2.5,�k,7.2,65.5,0,0,0,0
2020-01-27T02:43:00+09:00,1.1,�k,2.5,�k,7.2,65.4,0,0,0,0
2020-01-27T02:44:00+09:00,1.2,�k,2.4,�k,7.1,65.6,0,0,0,0
2020-01-27T02:45:00+09:00,1.2,�k,2.4,�k,7.1,65.7,0,0,0,0
2020-01-27T02:46:00+09:00,1.4,�k,3.7,���k��,7.2,65.5,0,0,0,0
2020-01-27T02:47:00+09:00,1.5,�k,3.7,���k��,7.3,64.5,0,0,0,0
2020-01-27T02:48:00+09:00,1.4,�k,3.7,���k��,7.3,64.6,0,0,0,0
2020-01-27T02:49:00+09:00,1.2,�k,3.7,���k��,7.2,65.1,0,0,0,0
2020-01-27T02:50:00+09:00,1.2,�k�k��,3.7,���k��,7.2,65.2,0,0,0,0
2020-01-27T02:51:00+09:00,1.2,�k�k��,3.7,���k��,7.2,65.2,0,0,0,0
2020-01-27T02:52:00+09:00,1.2,�k�k��,3.7,���k��,7.2,65.1,0,0,0,0
2020-01-27T02:53:00+09:00,1.1,�k��,3.7,���k��,7.2,64.8,0,0,0,0
2020-01-27T02:54:00+09:00,1,�k��,3.7,���k��,7.2,65,0,0,0,0
2020-01-27T02:55:00+09:00,1,�k�k��,3.7,���k��,7.2,64.8,0,0,0,0
2020-01-27T02:56:00+09:00,0.9,�k��,3.5,�k��,7.2,64.7,0,0,0,0
2020-01-27T02:57:00+09:00,0.8,�k�k��,3,�k,7.3,64.4,0,0,0,0
2020-01-27T02:58:00+09:00,0.8,�k�k��,3,�k,7.3,64.1,0,0,0,0
2020-01-27T02:59:00+09:00,1,�k�k��,3,�k,7.3,64.2,0,0,0,0
2020-01-27T03:00:00+09:00,1.1,�k�k��,3.1,�k��,7.4,63.5,0,0,0,0
2020-01-27T03:01:00+09:00,1.2,�k�k��,3.1,�k��,7.4,63.4,0,0,0,0
2020-01-27T03:02:00+09:00,1.2,�k�k��,3.1,�k��,7.4,63.4,0,0,0,0
2020-01-27T03:03:00+09:00,1.2,�k�k��,3.1,�k��,7.3,63.6,0,0,0,0
2020-01-27T03:04:00+09:00,1.3,�k�k��,3.1,�k��,7.3,63.7,0,0,0,0
2020-01-27T03:05:00+09:00,1.2,�k�k��,3.1,�k��,7.3,63.7,0,0,0,0
2020-01-27T03:06:00+09:00,1.1,�k�k��,3.1,�k��,7.2,64.1,0,0,0,0
2020-01-27T03:07:00+09:00,1.1,�k�k��,3.1,�k��,7.1,64.7,0,0,0,0
2020-01-27T03:08:00+09:00,1.1,�k�k��,3.1,�k��,7.1,65.1,0,0,0,0
2020-01-27T03:09:00+09:00,1,�k�k��,3.1,�k��,7.2,65,0,0,0,0
2020-01-27T03:10:00+09:00,1,�k�k��,3,�k��,7.2,64.6,0,0,0,0
2020-01-27T03:11:00+09:00,1,�k�k��,3,�k��,7.3,63.8,0,0,0,0
2020-01-27T03:12:00+09:00,1,�k�k��,3,�k��,7.3,63.8,0,0,0,0
2020-01-27T03:13:00+09:00,1,�k,3,�k��,7.2,64,0,0,0,0
2020-01-27T03:14:00+09:00,0.9,�k,3,�k��,7.1,64.5,0,0,0,0
2020-01-27T03:15:00+09:00,1,�k�k��,3,�k��,7.1,64.6,0,0,0,0
2020-01-27T03:16:00+09:00,1,�k�k��,3,�k��,7.1,64.8,0,0,0,0
2020-01-27T03:17:00+09:00,1,�k�k��,3,�k��,7.1,64.9,0,0,0,0
2020-01-27T03:18:00+09:00,0.9,�k�k��,3,�k��,7.1,65.1,0,0,0,0
2020-01-27T03:19:00+09:00,0.9,�k�k��,3,�k��,7.1,65,0,0,0,0
2020-01-27T03:20:00+09:00,0.8,�k�k��,2.6,���k��,7.2,65,0,0,0,0
2020-01-27T03:21:00+09:00,0.7,�k�k��,2.3,�k�k��,7.1,64.7,0,0,0,0
2020-01-27T03:22:00+09:00,0.8,�k��,2.3,�k�k��,7.2,64.4,0,0,0,0
2020-01-27T03:23:00+09:00,0.8,�k�k��,2.3,�k�k��,7.2,64.2,0,0,0,0
2020-01-27T03:24:00+09:00,0.9,�k�k��,2.3,�k�k��,7.2,64.1,0,0,0,0
2020-01-27T03:25:00+09:00,0.8,�k,2.3,�k�k��,7.2,64.4,0,0,0,0
2020-01-27T03:26:00+09:00,0.9,�k,2.3,�k�k��,7.1,64.5,0,0,0,0
2020-01-27T03:27:00+09:00,0.9,�k,2.6,�k��,7.1,64.7,0,0,0,0
2020-01-27T03:28:00+09:00,1.1,�k�k��,2.6,�k��,7,64.9,0,0,0,0
2020-01-27T03:29:00+09:00,1.2,�k�k��,2.6,�k��,7,65.4,0,0,0,0
2020-01-27T03:30:00+09:00,1.2,�k�k��,2.6,�k��,7,65.9,0,0,0,0
2020-01-27T03:31:00+09:00,1.3,�k�k��,3,�k�k��,7,65.4,0,0,0,0
2020-01-27T03:32:00+09:00,1.3,�k�k��,3,�k�k��,7,65.7,0,0,0,0
2020-01-27T03:33:00+09:00,1.3,�k�k��,3,�k�k��,7,65.7,0,0,0,0
2020-01-27T03:34:00+09:00,1.3,�k�k��,3,�k�k��,7.1,65.1,0,0,0,0
2020-01-27T03:35:00+09:00,1.4,�k,3,�k�k��,7.1,64.5,0,0,0,0
2020-01-27T03:36:00+09:00,1.3,�k,3,�k�k��,7.1,64.5,0,0,0,0
2020-01-27T03:37:00+09:00,1.4,�k�k��,4.9,���k��,7.1,64.3,0,0,0,0
2020-01-27T03:38:00+09:00,1.4,�k��,4.9,���k��,7.2,63.9,0,0,0,0
2020-01-27T03:39:00+09:00,1.5,�k��,5.1,�k��,7.2,64,0,0,0,0
2020-01-27T03:40:00+09:00,1.7,�k��,5.1,�k��,7.2,64,0,0,0,0
2020-01-27T03:41:00+09:00,1.7,�k��,5.1,�k��,7.1,64.1,0,0,0,0
2020-01-27T03:42:00+09:00,1.8,�k��,5.1,�k��,7.1,64.2,0,0,0,0
2020-01-27T03:43:00+09:00,1.7,�k��,5.1,�k��,7.1,64.3,0,0,0,0
2020-01-27T03:44:00+09:00,1.6,�k��,5.1,�k��,7,64.8,0,0,0,0
2020-01-27T03:45:00+09:00,1.6,�k��,5.1,�k��,7,65.2,0,0,0,0
2020-01-27T03:46:00+09:00,1.5,�k��,5.1,�k��,7,65.2,0,0,0,0
2020-01-27T03:47:00+09:00,1.4,�k��,5.1,�k��,7.1,64.6,0,0,0,0
2020-01-27T03:48:00+09:00,1.3,�k��,5.1,�k��,7.1,64.3,0,0,0,0
2020-01-27T03:49:00+09:00,1.1,�k��,3.5,�k��,7.1,64.7,0,0,0,0
2020-01-27T03:50:00+09:00,1.1,�k�k��,3.5,�k�k��,7,65.1,0,0,0,0
2020-01-27T03:51:00+09:00,1.1,�k�k��,3.5,�k�k��,7,65.3,0,0,0,0
2020-01-27T03:52:00+09:00,1,�k,3.5,�k�k��,7,65.6,0,0,0,0
2020-01-27T03:53:00+09:00,1.1,�k,3.5,�k�k��,7,65.9,0,0,0,0
2020-01-27T03:54:00+09:00,1.2,�k�k��,3.5,�k�k��,7,65.6,0,0,0,0
2020-01-27T03:55:00+09:00,1.2,�k�k��,3.5,�k�k��,7,65.3,0,0,0,0
2020-01-27T03:56:00+09:00,1.3,�k,3.5,�k�k��,7,65.4,0,0,0,0
2020-01-27T03:57:00+09:00,1.3,�k,3.5,�k�k��,7,65.5,0,0,0,0
2020-01-27T03:58:00+09:00,1.3,�k,3.5,�k�k��,7,65.6,0,0,0,0
2020-01-27T03:59:00+09:00,1.3,�k,3.5,�k�k��,6.9,65.9,0,0,0,0
2020-01-27T04:00:00+09:00,1.3,�k,3.3,�k,6.9,66,0,0,0,0
2020-01-27T04:01:00+09:00,1.3,�k,3.3,�k,6.9,66.1,0,0,0,0
2020-01-27T04:02:00+09:00,1.3,�k,3.3,�k,6.9,66.3,0,0,0,0
2020-01-27T04:03:00+09:00,1.2,�k,3.3,�k,6.9,66.6,0,0,0,0
2020-01-27T04:04:00+09:00,1.4,�k,3.6,�k��,6.9,66.7,0,0,0,0
2020-01-27T04:05:00+09:00,1.6,�k�k��,3.6,�k��,6.9,66.1,0,0,0,0
2020-01-27T04:06:00+09:00,1.6,�k�k��,3.6,�k��,6.9,65.7,0,0,0,0
2020-01-27T04:07:00+09:00,1.7,�k�k��,3.6,�k��,6.9,66.2,0,0,0,0
2020-01-27T04:08:00+09:00,1.7,�k�k��,3.6,�k��,6.9,65.9,0,0,0,0
2020-01-27T04:09:00+09:00,1.6,�k�k��,3.6,�k��,6.9,66,0,0,0,0
2020-01-27T04:10:00+09:00,1.5,�k�k��,3.6,�k��,6.8,66.4,0,0,0,0
2020-01-27T04:11:00+09:00,1.6,�k�k��,3.6,�k��,6.8,66.4,0,0,0,0
2020-01-27T04:12:00+09:00,1.5,�k�k��,3.6,�k��,6.9,66.6,0,0,0,0
2020-01-27T04:13:00+09:00,1.5,�k�k��,3.6,�k��,6.9,66.9,0,0,0,0
2020-01-27T04:14:00+09:00,1.3,�k�k��,2.6,�k��,6.8,66.8,0,0,0,0
2020-01-27T04:15:00+09:00,1.2,�k�k��,2.5,�k�k��,6.8,66.6,0,0,0,0
2020-01-27T04:16:00+09:00,1.2,�k��,2.6,���k��,6.8,66.7,0,0,0,0
2020-01-27T04:17:00+09:00,1.2,�k��,2.6,���k��,6.9,66.2,0,0,0,0
2020-01-27T04:18:00+09:00,1.1,�k��,2.6,���k��,6.8,66.7,0,0,0,0
2020-01-27T04:19:00+09:00,1.2,�k��,2.6,���k��,6.8,66.8,0,0,0,0
2020-01-27T04:20:00+09:00,1.2,�k��,2.6,���k��,6.8,66.7,0,0,0,0
2020-01-27T04:21:00+09:00,1.2,�k�k��,2.6,���k��,6.8,66.8,0,0,0,0
2020-01-27T04:22:00+09:00,1.4,�k�k��,3.3,�k��,6.9,66.5,0,0,0,0
2020-01-27T04:23:00+09:00,1.5,�k��,3.3,�k��,6.9,65.6,0,0,0,0
2020-01-27T04:24:00+09:00,1.5,�k��,3.3,�k��,6.9,65.6,0,0,0,0
2020-01-27T04:25:00+09:00,1.7,�k�k��,3.3,�k��,6.9,65.6,0,0,0,0
2020-01-27T04:26:00+09:00,1.7,�k�k��,3.3,�k��,6.9,65.6,0,0,0,0
2020-01-27T04:27:00+09:00,1.8,�k�k��,3.3,�k��,6.9,65.7,0,0,0,0
2020-01-27T04:28:00+09:00,1.9,�k�k��,3.3,�k��,6.9,65.5,0,0,0,0
2020-01-27T04:29:00+09:00,1.8,�k�k��,3.3,�k��,6.9,65.7,0,0,0,0
2020-01-27T04:30:00+09:00,1.8,�k�k��,3.3,�k��,6.8,66.2,0,0,0,0
2020-01-27T04:31:00+09:00,1.8,�k�k��,3.3,�k��,6.7,66.8,0,0,0,0
2020-01-27T04:32:00+09:00,1.7,�k�k��,3.1,�k�k��,6.8,66.8,0,0,0,0
2020-01-27T04:33:00+09:00,1.6,�k�k��,3.1,�k�k��,6.7,66.7,0,0,0,0
2020-01-27T04:34:00+09:00,1.5,�k�k��,3.1,�k�k��,6.7,66.8,0,0,0,0
2020-01-27T04:35:00+09:00,1.3,�k�k��,3.1,�k�k��,6.8,66.5,0,0,0,0
2020-01-27T04:36:00+09:00,1.2,�k�k��,3.1,�k�k��,6.8,66.5,0,0,0,0
2020-01-27T04:37:00+09:00,1.1,�k�k��,2.5,�k�k��,6.8,66.7,0,0,0,0
2020-01-27T04:38:00+09:00,1,�k�k��,1.8,�k��,6.7,66.7,0,0,0,0
2020-01-27T04:39:00+09:00,1,�k�k��,1.8,�k,6.7,66.9,0,0,0,0
2020-01-27T04:40:00+09:00,1.1,�k�k��,2.6,�k,6.7,66.9,0,0,0,0
2020-01-27T04:41:00+09:00,1.1,�k�k��,2.6,�k,6.8,66.3,0,0,0,0
2020-01-27T04:42:00+09:00,1,�k�k��,2.6,�k,6.7,66.9,0,0,0,0
2020-01-27T04:43:00+09:00,1.1,�k�k��,2.6,�k,6.7,67.1,0,0,0,0
2020-01-27T04:44:00+09:00,1.2,�k�k��,2.6,�k,6.6,67.3,0,0,0,0
2020-01-27T04:45:00+09:00,1.2,�k�k��,2.6,�k,6.6,67.4,0,0,0,0
2020-01-27T04:46:00+09:00,1.2,�k,2.6,�k,6.7,67.5,0,0,0,0
2020-01-27T04:47:00+09:00,1.2,�k,2.6,�k,6.7,67.6,0,0,0,0
2020-01-27T04:48:00+09:00,1.2,�k,2.6,�k,6.6,67.6,0,0,0,0
2020-01-27T04:49:00+09:00,1.2,�k,2.6,�k,6.7,67.6,0,0,0,0
2020-01-27T04:50:00+09:00,1.1,�k,2.5,�k,6.7,67.3,0,0,0,0
2020-01-27T04:51:00+09:00,1.2,�k,2.5,�k,6.7,66.8,0,0,0,0
2020-01-27T04:52:00+09:00,1.2,�k,2.5,�k,6.7,66.5,0,0,0,0
2020-01-27T04:53:00+09:00,1.3,�k�k��,2.1,�k�k��,6.6,66.8,0,0,0,0
2020-01-27T04:54:00+09:00,1.3,�k�k��,2.1,�k�k��,6.6,67.3,0,0,0,0
2020-01-27T04:55:00+09:00,1.3,�k�k��,2.1,�k�k��,6.6,67.3,0,0,0,0
2020-01-27T04:56:00+09:00,1.3,�k�k��,2.1,�k�k��,6.6,67.3,0,0,0,0
2020-01-27T04:57:00+09:00,1.3,�k��,2.1,�k�k��,6.7,67.1,0,0,0,0
2020-01-27T04:58:00+09:00,1.3,�k��,2.1,�k�k��,6.7,66.8,0,0,0,0
2020-01-27T04:59:00+09:00,1.3,�k��,2.1,�k�k��,6.7,66.7,0,0,0,0
2020-01-27T05:00:00+09:00,1.3,�k��,2.1,�k�k��,6.7,66.1,0,0,0,0
2020-01-27T05:01:00+09:00,1.4,�k��,2.6,�k��,6.7,65.8,0,0,0,0
2020-01-27T05:02:00+09:00,1.4,�k��,2.6,�k��,6.7,65.7,0,0,0,0
2020-01-27T05:03:00+09:00,1.3,�k��,2.6,�k��,6.7,65.7,0,0,0,0
2020-01-27T05:04:00+09:00,1.2,�k��,2.6,�k��,6.7,66,0,0,0,0
2020-01-27T05:05:00+09:00,1.2,�k��,2.6,�k��,6.8,65.7,0,0,0,0
2020-01-27T05:06:00+09:00,1.2,�k�k��,2.6,�k��,6.8,65.3,0,0,0,0
2020-01-27T05:07:00+09:00,1.2,�k�k��,2.6,�k��,6.8,65.2,0,0,0,0
2020-01-27T05:08:00+09:00,1.3,�k�k��,2.6,�k��,6.7,65.7,0,0,0,0
2020-01-27T05:09:00+09:00,1.4,�k�k��,3.7,�k��,6.7,65.9,0,0,0,0
2020-01-27T05:10:00+09:00,1.5,�k�k��,3.7,�k��,6.7,65.5,0,0,0,0
2020-01-27T05:11:00+09:00,1.5,�k�k��,3.7,�k��,6.7,65.7,0,0,0,0
2020-01-27T05:12:00+09:00,1.5,�k,3.8,�k�k��,6.6,66.2,0,0,0,0
2020-01-27T05:13:00+09:00,1.8,�k,5.6,�k��,6.6,66.4,0,0,0,0
2020-01-27T05:14:00+09:00,2.1,�k�k��,5.6,�k��,6.7,65,0,0,0,0
2020-01-27T05:15:00+09:00,2.3,�k�k��,5.6,�k��,6.8,64.3,0,0,0,0
2020-01-27T05:16:00+09:00,2.5,�k�k��,5.6,�k��,6.8,64.4,0,0,0,0
2020-01-27T05:17:00+09:00,2.7,�k�k��,5.6,�k��,6.8,64.7,0,0,0,0
2020-01-27T05:18:00+09:00,2.7,�k�k��,5.6,�k��,6.7,64.9,0,0,0,0
2020-01-27T05:19:00+09:00,2.6,�k�k��,5.6,�k��,6.7,64.9,0,0,0,0
2020-01-27T05:20:00+09:00,2.5,�k�k��,5.6,�k��,6.6,65.5,0,0,0,0
2020-01-27T05:21:00+09:00,2.5,�k�k��,5.6,�k��,6.6,66,0,0,0,0
2020-01-27T05:22:00+09:00,2.4,�k�k��,5.6,�k��,6.5,66.6,0,0,0,0
2020-01-27T05:23:00+09:00,2.1,�k,5.3,�k�k��,6.5,66.9,0,0,0,0
2020-01-27T05:24:00+09:00,1.9,�k,4.8,�k�k��,6.5,67.1,0,0,0,0
2020-01-27T05:25:00+09:00,1.7,�k,4.6,�k,6.5,67.2,0,0,0,0
2020-01-27T05:26:00+09:00,1.6,�k,3.1,�k�k��,6.5,66.9,0,0,0,0
2020-01-27T05:27:00+09:00,1.5,�k,3.1,�k�k��,6.5,66.9,0,0,0,0
2020-01-27T05:28:00+09:00,1.4,�k,2.7,�k,6.5,67.1,0,0,0,0
2020-01-27T05:29:00+09:00,1.4,�k,2.7,�k,6.5,67.1,0,0,0,0
2020-01-27T05:30:00+09:00,1.5,�k,3,�k�k��,6.5,67.1,0,0,0,0
2020-01-27T05:31:00+09:00,1.6,�k,4.5,�k�k��,6.6,66.2,0,0,0,0
2020-01-27T05:32:00+09:00,1.7,�k�k��,4.5,�k�k��,6.7,65.5,0,0,0,0
2020-01-27T05:33:00+09:00,1.9,�k�k��,4.5,�k�k��,6.7,65.2,0,0,0,0
2020-01-27T05:34:00+09:00,2,�k�k��,4.5,�k�k��,6.8,64.5,0,0,0,0
2020-01-27T05:35:00+09:00,2,�k�k��,4.5,�k�k��,6.8,64.4,0,0,0,0
2020-01-27T05:36:00+09:00,2,�k�k��,4.5,�k�k��,6.7,64.7,0,0,0,0
2020-01-27T05:37:00+09:00,2,�k�k��,4.5,�k�k��,6.7,65,0,0,0,0
2020-01-27T05:38:00+09:00,2.1,�k�k��,4.5,�k�k��,6.6,65.7,0,0,0,0
2020-01-27T05:39:00+09:00,2.2,�k�k��,4.5,�k�k��,6.6,66.3,0,0,0,0
2020-01-27T05:40:00+09:00,2.2,�k�k��,4.5,�k�k��,6.6,66.4,0,0,0,0
2020-01-27T05:41:00+09:00,2.2,�k�k��,4.5,���k��,6.5,66.2,0,0,0,0
2020-01-27T05:42:00+09:00,2.2,�k�k��,4.5,���k��,6.5,66.6,0,0,0,0
2020-01-27T05:43:00+09:00,2.2,�k�k��,4.1,�k,6.6,66.1,0,0,0,0
2020-01-27T05:44:00+09:00,2.3,�k�k��,4.3,�k�k��,6.6,65.6,0,0,0,0
2020-01-27T05:45:00+09:00,2.5,�k�k��,4.3,�k�k��,6.7,65.5,0,0,0,0
2020-01-27T05:46:00+09:00,2.5,�k�k��,4.3,�k�k��,6.7,65.1,0,0,0,0
2020-01-27T05:47:00+09:00,2.7,�k�k��,4.3,�k�k��,6.7,64.8,0,0,0,0
2020-01-27T05:48:00+09:00,2.8,�k�k��,4.3,�k�k��,6.7,64.9,0,0,0,0
2020-01-27T05:49:00+09:00,2.9,�k�k��,4.6,�k�k��,6.7,65,0,0,0,0
2020-01-27T05:50:00+09:00,3,�k�k��,4.6,�k�k��,6.7,64.7,0,0,0,0
2020-01-27T05:51:00+09:00,3.1,�k��,4.6,�k�k��,6.7,64.6,0,0,0,0
2020-01-27T05:52:00+09:00,3.1,�k��,4.6,�k�k��,6.8,64.5,0,0,0,0
2020-01-27T05:53:00+09:00,3.1,�k��,4.6,�k�k��,6.8,64.4,0,0,0,0
2020-01-27T05:54:00+09:00,3,�k��,4.6,�k�k��,6.8,64.3,0,0,0,0
2020-01-27T05:55:00+09:00,2.9,�k��,4.6,�k�k��,6.7,64.5,0,0,0,0
2020-01-27T05:56:00+09:00,2.8,�k��,4.6,�k�k��,6.7,64.4,0,0,0,0
2020-01-27T05:57:00+09:00,2.7,�k��,4.6,�k�k��,6.7,64.9,0,0,0,0
2020-01-27T05:58:00+09:00,2.7,�k��,4.6,�k�k��,6.6,65.2,0,0,0,0
2020-01-27T05:59:00+09:00,2.5,���k��,4.6,���k��,6.6,65.4,0,0,0,0
2020-01-27T06:00:00+09:00,2.4,���k��,4.6,���k��,6.7,65.3,0,0,0,0
2020-01-27T06:01:00+09:00,2.4,���k��,5.2,�k��,6.7,65.2,0,0,0,0
2020-01-27T06:02:00+09:00,2.4,���k��,5.2,�k��,6.7,64.8,0,0,0,0
2020-01-27T06:03:00+09:00,2.3,���k��,5.2,�k��,6.7,64.8,0,0,0,0
2020-01-27T06:04:00+09:00,2.4,�k��,5.2,�k��,6.7,64.9,0,0,0,0
2020-01-27T06:05:00+09:00,2.5,�k��,5.2,�k��,6.7,64.7,0,0,0,0
2020-01-27T06:06:00+09:00,2.6,�k��,5.2,�k��,6.7,64.5,0,0,0,0
2020-01-27T06:07:00+09:00,2.7,�k��,5.2,�k��,6.8,64.4,0,0,0,0
2020-01-27T06:08:00+09:00,2.8,�k��,5.2,�k��,6.7,64.5,0,0,0,0
2020-01-27T06:09:00+09:00,2.8,�k��,5.2,�k��,6.7,64.9,0,0,0,0
2020-01-27T06:10:00+09:00,2.8,�k�k��,5.2,�k��,6.7,65.1,0,0,0,0
2020-01-27T06:11:00+09:00,2.7,�k�k��,4.9,�k�k��,6.7,65.1,0,0,0,0
2020-01-27T06:12:00+09:00,2.6,�k�k��,4.9,�k�k��,6.6,65.4,0,0,0,0
2020-01-27T06:13:00+09:00,2.5,�k�k��,4.9,�k�k��,6.7,65.2,0,0,0,0
2020-01-27T06:14:00+09:00,2.4,�k�k��,4.9,�k�k��,6.6,65.3,0,0,0,0
2020-01-27T06:15:00+09:00,2.3,�k�k��,4.9,�k�k��,6.7,65.1,0,0,0,0
2020-01-27T06:16:00+09:00,2.2,�k�k��,4.7,�k�k��,6.7,64.8,0,0,0,0
2020-01-27T06:17:00+09:00,2,�k�k��,3.8,�k�k��,6.6,65.3,0,0,0,0
2020-01-27T06:18:00+09:00,1.9,�k��,3.1,�k�k��,6.5,65.9,0,0,0,0
2020-01-27T06:19:00+09:00,1.8,�k��,3,�k�k��,6.5,66.3,0,0,0,0
2020-01-27T06:20:00+09:00,1.7,�k��,3,�k�k��,6.6,65.9,0,0,0,0
2020-01-27T06:21:00+09:00,1.6,�k��,3,�k�k��,6.6,65.6,0,0,0,0
2020-01-27T06:22:00+09:00,1.5,���k��,2.8,���k��,6.7,65.3,0,0,0,0
2020-01-27T06:23:00+09:00,1.5,���k��,2.8,���k��,6.7,65.1,0,0,0,0
2020-01-27T06:24:00+09:00,1.6,�k��,2.8,���k��,6.7,65.4,0,0,0,0
2020-01-27T06:25:00+09:00,1.6,�k��,3,�k��,6.7,65.2,0,0,0,0
2020-01-27T06:26:00+09:00,1.6,�k��,3,�k��,6.7,65.2,0,0,0,0
2020-01-27T06:27:00+09:00,1.7,�k��,3.1,�k��,6.6,65.4,0,0,0,0
2020-01-27T06:28:00+09:00,1.8,�k��,3.5,�k�k��,6.6,65.6,0,0,0,0